Time,TemperatureF,DewpointF,PressureIn,WindDirection,WindDirectionDegrees,WindSpeedMPH,WindSpeedGustMPH,Humidity,HourlyPrecipIn,Conditions,Clouds,dailyrainin,SoftwareType,DateUTC
2013-06-10 00:01:00,49.2,44.9,30.05,SE,143,0.0,0.0,85,0.00,,BKN029,0.00,VWS V14.01,2013-06-10 07:01:00,
2013-06-10 00:06:00,48.9,44.6,30.05,SE,142,0.0,0.0,85,0.00,,BKN029,0.00,VWS V14.01,2013-06-10 07:06:00,
2013-06-10 00:11:00,48.6,44.6,30.05,SE,143,0.0,0.0,86,0.00,,BKN029,0.00,VWS V14.01,2013-06-10 07:11:00,
2013-06-10 00:16:00,48.5,44.8,30.05,SE,145,0.0,0.0,87,0.00,,BKN029,0.00,VWS V14.01,2013-06-10 07:16:00,
2013-06-10 00:21:00,48.4,44.7,30.05,SE,145,0.0,0.0,87,0.00,,BKN029,0.00,VWS V14.01,2013-06-10 07:21:00,
2013-06-10 00:26:00,48.3,44.6,30.05,SE,145,0.0,0.0,87,0.00,,FEW029,0.00,VWS V14.01,2013-06-10 07:26:00,
2013-06-10 00:31:00,48.4,44.7,30.05,NW,322,0.0,0.0,87,0.00,,FEW029,0.00,VWS V14.01,2013-06-10 07:31:00,
2013-06-10 00:36:00,48.5,44.5,30.05,ESE,117,0.0,0.0,86,0.00,,FEW029,0.00,VWS V14.01,2013-06-10 07:36:00,
2013-06-10 00:41:00,48.4,44.4,30.05,ESE,117,0.0,0.0,86,0.00,,FEW029,0.00,VWS V14.01,2013-06-10 07:41:00,
2013-06-10 00:46:00,48.5,44.5,30.05,ENE,67,0.0,0.0,86,0.00,,BKN029,0.00,VWS V14.01,2013-06-10 07:46:00,
2013-06-10 00:51:00,48.5,44.2,30.05,ENE,67,0.0,0.0,85,0.00,,BKN029,0.00,VWS V14.01,2013-06-10 07:51:00,
2013-06-10 00:56:00,48.4,44.1,30.05,South,172,0.0,0.0,85,0.00,,BKN029,0.00,VWS V14.01,2013-06-10 07:56:00,
2013-06-10 01:01:00,48.0,44.0,30.05,South,172,0.0,0.0,86,0.00,,BKN029,0.00,VWS V14.01,2013-06-10 08:01:00,
2013-06-10 01:06:00,47.5,43.5,30.05,South,172,0.0,0.0,86,0.00,,FEW029,0.00,VWS V14.01,2013-06-10 08:06:00,
2013-06-10 01:11:00,47.2,43.5,30.05,South,173,0.0,0.0,87,0.00,,FEW029,0.00,VWS V14.01,2013-06-10 08:11:00,
2013-06-10 01:16:00,46.9,43.5,30.06,South,172,0.0,0.0,88,0.00,,FEW029,0.00,VWS V14.01,2013-06-10 08:16:00,
2013-06-10 01:21:00,46.7,43.3,30.06,South,173,0.0,0.0,88,0.00,,FEW029,0.00,VWS V14.01,2013-06-10 08:21:00,
2013-06-10 01:26:00,46.4,43.3,30.05,South,172,0.0,0.0,89,0.00,,CLR,0.00,VWS V14.01,2013-06-10 08:26:00,
2013-06-10 01:31:00,46.1,43.0,30.05,South,173,0.0,0.0,89,0.00,,CLR,0.00,VWS V14.01,2013-06-10 08:31:00,
2013-06-10 01:36:00,45.8,42.8,30.05,South,173,0.0,0.0,89,0.00,,CLR,0.00,VWS V14.01,2013-06-10 08:36:00,
2013-06-10 01:41:00,45.5,42.7,30.05,South,172,0.0,0.0,90,0.00,,CLR,0.00,VWS V14.01,2013-06-10 08:41:00,
2013-06-10 01:46:00,45.4,42.6,30.05,South,172,0.0,0.0,90,0.00,,CLR,0.00,VWS V14.01,2013-06-10 08:46:00,
2013-06-10 01:51:00,45.2,42.5,30.05,South,173,0.0,0.0,90,0.00,,CLR,0.00,VWS V14.01,2013-06-10 08:51:00,
2013-06-10 01:56:00,45.0,42.2,30.05,South,172,0.0,0.0,90,0.00,,CLR,0.00,VWS V14.01,2013-06-10 08:56:00,
2013-06-10 02:01:00,44.9,42.4,30.05,South,172,0.0,0.0,91,0.00,,CLR,0.00,VWS V14.01,2013-06-10 09:01:00,
2013-06-10 02:06:00,44.7,42.2,30.05,South,172,0.0,0.0,91,0.00,,CLR,0.00,VWS V14.01,2013-06-10 09:06:00,
2013-06-10 02:11:00,44.5,42.0,30.05,South,172,0.0,0.0,91,0.00,,CLR,0.00,VWS V14.01,2013-06-10 09:11:00,
2013-06-10 02:15:00,44.5,42.0,30.04,South,172,0.0,0.0,91,0.00,,CLR,0.00,VWS V14.01,2013-06-10 09:15:00,
2013-06-10 02:20:00,44.4,41.9,30.04,South,172,0.0,0.0,91,0.00,,CLR,0.00,VWS V14.01,2013-06-10 09:20:00,
2013-06-10 02:25:00,44.2,41.7,30.04,South,172,0.0,0.0,91,0.00,,CLR,0.00,VWS V14.01,2013-06-10 09:25:00,
2013-06-10 02:30:00,44.1,41.7,30.03,South,173,0.0,0.0,91,0.00,,CLR,0.00,VWS V14.01,2013-06-10 09:30:00,
2013-06-10 02:35:00,44.0,41.8,30.03,South,172,0.0,0.0,92,0.00,,CLR,0.00,VWS V14.01,2013-06-10 09:35:00,
2013-06-10 02:40:00,43.8,41.6,30.03,South,172,0.0,0.0,92,0.00,,CLR,0.00,VWS V14.01,2013-06-10 09:40:00,
2013-06-10 02:45:00,43.6,41.4,30.03,South,173,0.0,0.0,92,0.00,,CLR,0.00,VWS V14.01,2013-06-10 09:45:00,
2013-06-10 02:50:00,43.4,41.2,30.03,South,173,0.0,0.0,92,0.00,,CLR,0.00,VWS V14.01,2013-06-10 09:50:00,
2013-06-10 02:55:00,43.2,41.0,30.03,South,173,0.0,0.0,92,0.00,,CLR,0.00,VWS V14.01,2013-06-10 09:55:00,
2013-06-10 03:00:00,43.0,40.8,30.03,South,172,0.0,0.0,92,0.00,,CLR,0.00,VWS V14.01,2013-06-10 10:00:00,
2013-06-10 03:05:00,43.0,40.8,30.03,South,173,0.0,0.0,92,0.00,,CLR,0.00,VWS V14.01,2013-06-10 10:05:00,
2013-06-10 03:10:00,43.0,40.8,30.03,South,172,0.0,0.0,92,0.00,,CLR,0.00,VWS V14.01,2013-06-10 10:10:00,
2013-06-10 03:15:00,42.8,40.6,30.03,South,173,0.0,0.0,92,0.00,,CLR,0.00,VWS V14.01,2013-06-10 10:15:00,
2013-06-10 03:20:00,42.8,40.6,30.03,South,172,0.0,0.0,92,0.00,,CLR,0.00,VWS V14.01,2013-06-10 10:20:00,
2013-06-10 03:25:00,42.5,40.3,30.03,South,172,0.0,0.0,92,0.00,,CLR,0.00,VWS V14.01,2013-06-10 10:25:00,
2013-06-10 03:30:00,42.6,40.7,30.02,South,172,0.0,0.0,93,0.00,,CLR,0.00,VWS V14.01,2013-06-10 10:30:00,
2013-06-10 03:35:00,42.7,40.8,30.03,South,178,1.0,0.0,93,0.00,,CLR,0.00,VWS V14.01,2013-06-10 10:35:00,
2013-06-10 03:40:00,42.7,40.8,30.02,South,179,0.0,0.0,93,0.00,,CLR,0.00,VWS V14.01,2013-06-10 10:40:00,
2013-06-10 03:45:00,42.7,40.8,30.02,South,179,0.0,0.0,93,0.00,,CLR,0.00,VWS V14.01,2013-06-10 10:45:00,
2013-06-10 03:50:00,42.5,40.3,30.02,South,179,0.0,0.0,92,0.00,,CLR,0.00,VWS V14.01,2013-06-10 10:50:00,
2013-06-10 03:55:00,42.5,40.6,30.02,South,179,0.0,0.0,93,0.00,,CLR,0.00,VWS V14.01,2013-06-10 10:55:00,
2013-06-10 04:00:00,42.4,40.2,30.02,South,179,0.0,0.0,92,0.00,,CLR,0.00,VWS V14.01,2013-06-10 11:00:00,
2013-06-10 04:05:00,42.3,40.4,30.02,South,179,0.0,0.0,93,0.00,,CLR,0.00,VWS V14.01,2013-06-10 11:05:00,
2013-06-10 04:10:00,42.6,40.7,30.02,South,179,0.0,0.0,93,0.00,,CLR,0.00,VWS V14.01,2013-06-10 11:10:00,
2013-06-10 04:15:00,42.4,40.5,30.02,South,179,0.0,0.0,93,0.00,,CLR,0.00,VWS V14.01,2013-06-10 11:15:00,
2013-06-10 04:20:00,42.2,40.3,30.02,South,179,0.0,0.0,93,0.00,,CLR,0.00,VWS V14.01,2013-06-10 11:20:00,
2013-06-10 04:25:00,42.0,40.1,30.02,South,180,0.0,0.0,93,0.00,,CLR,0.00,VWS V14.01,2013-06-10 11:25:00,
2013-06-10 04:30:00,42.1,40.2,30.02,South,179,0.0,0.0,93,0.00,,CLR,0.00,VWS V14.01,2013-06-10 11:30:00,
2013-06-10 04:35:00,42.1,40.2,30.02,South,178,0.0,0.0,93,0.00,,CLR,0.00,VWS V14.01,2013-06-10 11:35:00,
2013-06-10 04:40:00,41.9,40.0,30.02,South,178,0.0,0.0,93,0.00,,CLR,0.00,VWS V14.01,2013-06-10 11:40:00,
2013-06-10 04:45:00,41.7,39.8,30.02,South,178,0.0,0.0,93,0.00,,CLR,0.00,VWS V14.01,2013-06-10 11:45:00,
2013-06-10 04:50:00,41.6,39.7,30.02,South,178,0.0,0.0,93,0.00,,CLR,0.00,VWS V14.01,2013-06-10 11:50:00,
2013-06-10 04:55:00,41.7,39.8,30.02,South,178,0.0,0.0,93,0.00,,CLR,0.00,VWS V14.01,2013-06-10 11:55:00,
2013-06-10 05:00:00,41.7,39.8,30.02,South,178,0.0,0.0,93,0.00,,CLR,0.00,VWS V14.01,2013-06-10 12:00:00,
2013-06-10 05:05:00,41.6,39.7,30.02,South,178,0.0,0.0,93,0.00,,CLR,0.00,VWS V14.01,2013-06-10 12:05:00,
2013-06-10 05:10:00,41.6,39.7,30.02,South,178,0.0,0.0,93,0.00,,CLR,0.00,VWS V14.01,2013-06-10 12:10:00,
2013-06-10 05:15:00,41.5,39.6,30.02,South,178,0.0,0.0,93,0.00,,CLR,0.00,VWS V14.01,2013-06-10 12:15:00,
2013-06-10 05:20:00,41.2,39.3,30.02,South,178,0.0,0.0,93,0.00,,CLR,0.00,VWS V14.01,2013-06-10 12:20:00,
2013-06-10 05:25:00,41.0,39.1,30.02,South,178,0.0,0.0,93,0.00,,CLR,0.00,VWS V14.01,2013-06-10 12:25:00,
2013-06-10 05:30:00,41.0,39.1,30.02,South,178,0.0,0.0,93,0.00,,CLR,0.00,VWS V14.01,2013-06-10 12:30:00,
2013-06-10 05:35:00,41.0,39.1,30.02,South,178,0.0,0.0,93,0.00,,CLR,0.00,VWS V14.01,2013-06-10 12:35:00,
2013-06-10 05:40:00,40.9,39.0,30.02,South,178,0.0,0.0,93,0.00,,CLR,0.00,VWS V14.01,2013-06-10 12:40:00,
2013-06-10 05:45:00,40.8,38.9,30.02,South,178,0.0,0.0,93,0.00,,CLR,0.00,VWS V14.01,2013-06-10 12:45:00,
2013-06-10 05:50:00,40.6,38.7,30.02,South,178,0.0,0.0,93,0.00,,CLR,0.00,VWS V14.01,2013-06-10 12:50:00,
2013-06-10 05:55:00,40.7,39.1,30.02,South,178,0.0,0.0,94,0.00,,CLR,0.00,VWS V14.01,2013-06-10 12:55:00,
2013-06-10 06:00:00,40.9,39.3,30.02,South,178,0.0,0.0,94,0.00,,CLR,0.00,VWS V14.01,2013-06-10 13:00:00,
2013-06-10 06:05:00,41.0,39.4,30.02,South,178,0.0,0.0,94,0.00,,CLR,0.00,VWS V14.01,2013-06-10 13:05:00,
2013-06-10 06:10:00,41.1,39.5,30.02,South,178,0.0,0.0,94,0.00,,CLR,0.00,VWS V14.01,2013-06-10 13:10:00,
2013-06-10 06:15:00,41.1,39.5,30.02,South,178,0.0,0.0,94,0.00,,CLR,0.00,VWS V14.01,2013-06-10 13:15:00,
2013-06-10 06:20:00,41.0,39.4,30.02,South,178,0.0,0.0,94,0.00,,CLR,0.00,VWS V14.01,2013-06-10 13:20:00,
2013-06-10 06:25:00,41.1,39.5,30.02,South,178,0.0,0.0,94,0.00,,CLR,0.00,VWS V14.01,2013-06-10 13:25:00,
2013-06-10 06:30:00,41.3,39.7,30.02,South,178,0.0,0.0,94,0.00,,CLR,0.00,VWS V14.01,2013-06-10 13:30:00,
2013-06-10 06:35:00,41.4,39.8,30.02,South,178,0.0,0.0,94,0.00,,CLR,0.00,VWS V14.01,2013-06-10 13:35:00,
2013-06-10 06:40:00,41.8,40.2,30.01,South,178,0.0,0.0,94,0.00,,CLR,0.00,VWS V14.01,2013-06-10 13:40:00,
2013-06-10 06:45:00,42.6,41.0,30.01,South,178,0.0,0.0,94,0.00,,SCT027,0.00,VWS V14.01,2013-06-10 13:45:00,
2013-06-10 06:50:00,43.5,41.9,30.01,South,178,0.0,0.0,94,0.00,,SCT027,0.00,VWS V14.01,2013-06-10 13:50:00,
2013-06-10 06:55:00,44.0,42.4,30.01,South,178,0.0,0.0,94,0.00,,SCT027,0.00,VWS V14.01,2013-06-10 13:55:00,
2013-06-10 07:00:00,44.6,43.0,30.01,South,178,0.0,0.0,94,0.00,,SCT027,0.00,VWS V14.01,2013-06-10 14:00:00,
2013-06-10 07:05:00,44.9,43.0,30.01,South,178,0.0,0.0,93,0.00,,FEW027,0.00,VWS V14.01,2013-06-10 14:05:00,
2013-06-10 07:10:00,44.8,42.9,30.01,South,178,0.0,0.0,93,0.00,,FEW027,0.00,VWS V14.01,2013-06-10 14:10:00,
2013-06-10 07:15:00,44.8,42.9,30.01,South,178,0.0,0.0,93,0.00,,FEW027,0.00,VWS V14.01,2013-06-10 14:15:00,
2013-06-10 07:20:00,44.8,42.9,30.01,South,178,0.0,0.0,93,0.00,,FEW027,0.00,VWS V14.01,2013-06-10 14:20:00,
2013-06-10 07:25:00,45.1,43.2,30.01,South,178,0.0,0.0,93,0.00,,BKN027,0.00,VWS V14.01,2013-06-10 14:25:00,
2013-06-10 07:30:00,45.5,43.6,30.01,South,178,0.0,0.0,93,0.00,,BKN027,0.00,VWS V14.01,2013-06-10 14:30:00,
2013-06-10 07:35:00,45.8,43.6,30.01,South,178,0.0,0.0,92,0.00,,BKN027,0.00,VWS V14.01,2013-06-10 14:35:00,
2013-06-10 07:40:00,46.0,43.8,30.01,South,178,0.0,0.0,92,0.00,,BKN027,0.00,VWS V14.01,2013-06-10 14:40:00,
2013-06-10 07:45:00,46.4,44.2,30.01,South,178,0.0,0.0,92,0.00,,OVC025,0.00,VWS V14.01,2013-06-10 14:45:00,
2013-06-10 07:50:00,46.7,44.2,30.01,South,178,0.0,0.0,91,0.00,,OVC025,0.00,VWS V14.01,2013-06-10 14:50:00,
2013-06-10 07:55:00,47.0,44.5,30.01,South,178,0.0,0.0,91,0.00,,OVC025,0.00,VWS V14.01,2013-06-10 14:55:00,
2013-06-10 08:00:00,47.4,44.9,30.01,South,178,0.0,0.0,91,0.00,,OVC025,0.00,VWS V14.01,2013-06-10 15:00:00,
2013-06-10 08:05:00,48.5,45.7,30.01,South,178,0.0,0.0,90,0.00,,OVC025,0.00,VWS V14.01,2013-06-10 15:05:00,
2013-06-10 08:10:00,50.1,47.0,30.01,South,178,0.0,0.0,89,0.00,,OVC025,0.00,VWS V14.01,2013-06-10 15:10:00,
2013-06-10 08:15:00,51.6,47.6,30.01,South,178,0.0,0.0,86,0.00,,OVC025,0.00,VWS V14.01,2013-06-10 15:15:00,
2013-06-10 08:20:00,52.1,47.1,30.00,South,182,0.0,0.0,83,0.00,,OVC025,0.00,VWS V14.01,2013-06-10 15:20:00,
2013-06-10 08:25:00,52.7,47.0,30.00,North,11,1.0,0.0,81,0.00,,OVC025,0.00,VWS V14.01,2013-06-10 15:25:00,
2013-06-10 08:30:00,53.5,47.5,30.00,NNE,25,0.0,0.0,80,0.00,,OVC025,0.00,VWS V14.01,2013-06-10 15:30:00,
2013-06-10 08:35:00,54.7,48.0,30.00,NNE,30,1.0,0.0,78,0.00,,OVC025,0.00,VWS V14.01,2013-06-10 15:35:00,
2013-06-10 08:40:00,53.7,46.3,30.00,SW,221,1.0,0.0,76,0.00,,OVC025,0.00,VWS V14.01,2013-06-10 15:40:00,
2013-06-10 08:45:00,52.9,46.2,30.00,SW,227,0.0,0.0,78,0.00,,OVC034,0.00,VWS V14.01,2013-06-10 15:45:00,
2013-06-10 08:50:00,52.8,46.1,30.00,SW,227,1.0,0.0,78,0.00,,OVC034,0.00,VWS V14.01,2013-06-10 15:50:00,
2013-06-10 08:55:00,52.8,46.5,30.00,NW,309,0.0,0.0,79,0.00,,OVC034,0.00,VWS V14.01,2013-06-10 15:55:00,
2013-06-10 09:00:00,53.3,46.6,30.00,NW,309,0.0,0.0,78,0.00,,OVC034,0.00,VWS V14.01,2013-06-10 16:00:00,
2013-06-10 09:05:00,54.1,46.7,30.00,NW,313,0.0,0.0,76,0.00,,OVC032,0.00,VWS V14.01,2013-06-10 16:05:00,
2013-06-10 09:10:00,55.4,47.3,30.00,SSW,213,0.0,0.0,74,0.00,,OVC032,0.00,VWS V14.01,2013-06-10 16:10:00,
2013-06-10 09:15:00,55.4,47.3,30.00,ESE,113,0.0,0.0,74,0.00,,OVC032,0.00,VWS V14.01,2013-06-10 16:15:00,
2013-06-10 09:20:00,55.3,46.8,30.00,NE,52,1.0,0.0,73,0.00,,OVC032,0.00,VWS V14.01,2013-06-10 16:20:00,
2013-06-10 09:25:00,56.8,47.9,30.00,ENE,60,2.0,0.0,72,0.00,,OVC032,0.00,VWS V14.01,2013-06-10 16:25:00,
2013-06-10 09:30:00,57.6,47.9,30.00,SW,214,2.0,0.0,70,0.00,,OVC032,0.00,VWS V14.01,2013-06-10 16:30:00,
2013-06-10 09:35:00,57.5,47.4,29.99,SE,132,2.0,0.0,69,0.00,,OVC032,0.00,VWS V14.01,2013-06-10 16:35:00,
2013-06-10 09:40:00,57.2,47.1,29.99,NE,47,2.0,0.0,69,0.00,,OVC032,0.00,VWS V14.01,2013-06-10 16:40:00,
2013-06-10 09:45:00,58.0,47.5,29.99,NNW,337,1.0,0.0,68,0.00,,BKN036,0.00,VWS V14.01,2013-06-10 16:45:00,
2013-06-10 09:50:00,57.8,48.1,29.99,ESE,113,1.0,0.0,70,0.00,,BKN036,0.00,VWS V14.01,2013-06-10 16:50:00,
2013-06-10 09:55:00,57.6,47.9,29.99,ESE,123,0.0,0.0,70,0.00,,BKN036,0.00,VWS V14.01,2013-06-10 16:55:00,
2013-06-10 10:00:00,57.6,47.5,29.99,ESE,120,0.0,0.0,69,0.00,,BKN036,0.00,VWS V14.01,2013-06-10 17:00:00,
2013-06-10 10:05:00,57.9,47.4,29.99,ENE,75,1.0,0.0,68,0.00,,BKN038,0.00,VWS V14.01,2013-06-10 17:05:00,
2013-06-10 10:10:00,59.6,48.2,29.99,North,360,0.0,0.0,66,0.00,,BKN038,0.00,VWS V14.01,2013-06-10 17:10:00,
2013-06-10 10:15:00,60.7,48.9,29.99,ESE,106,4.0,0.0,65,0.00,,BKN038,0.00,VWS V14.01,2013-06-10 17:15:00,
2013-06-10 10:20:00,59.5,48.2,29.99,ESE,102,2.0,0.0,66,0.00,,BKN038,0.00,VWS V14.01,2013-06-10 17:20:00,
2013-06-10 10:25:00,60.2,49.2,29.99,ESE,118,3.0,0.0,67,0.00,,BKN027,0.00,VWS V14.01,2013-06-10 17:25:00,
2013-06-10 10:30:00,61.3,49.0,29.98,ESE,119,1.0,0.0,64,0.00,,BKN027,0.00,VWS V14.01,2013-06-10 17:30:00,
2013-06-10 10:35:00,60.9,49.1,29.99,SE,141,3.0,0.0,65,0.00,,BKN027,0.00,VWS V14.01,2013-06-10 17:35:00,
2013-06-10 10:40:00,60.1,48.7,29.98,South,169,0.0,0.0,66,0.00,,BKN027,0.00,VWS V14.01,2013-06-10 17:40:00,
2013-06-10 10:45:00,59.8,48.4,29.98,ENE,74,1.0,0.0,66,0.00,,OVC027,0.00,VWS V14.01,2013-06-10 17:45:00,
2013-06-10 10:50:00,59.6,48.6,29.98,ENE,61,1.0,0.0,67,0.00,,OVC027,0.00,VWS V14.01,2013-06-10 17:50:00,
2013-06-10 10:55:00,60.3,49.7,29.98,NE,55,3.0,0.0,68,0.00,,OVC027,0.00,VWS V14.01,2013-06-10 17:55:00,
2013-06-10 11:00:00,60.9,49.1,29.98,NNE,19,1.0,0.0,65,0.00,,OVC027,0.00,VWS V14.01,2013-06-10 18:00:00,
2013-06-10 11:05:00,60.4,49.8,29.98,ESE,118,4.0,0.0,68,0.00,,OVC029,0.00,VWS V14.01,2013-06-10 18:05:00,
2013-06-10 11:10:00,61.5,50.5,29.98,ESE,103,1.0,0.0,67,0.00,,OVC029,0.00,VWS V14.01,2013-06-10 18:10:00,
2013-06-10 11:15:00,62.4,49.7,29.98,South,188,0.0,0.0,63,0.00,,OVC029,0.00,VWS V14.01,2013-06-10 18:15:00,
2013-06-10 11:20:00,63.2,49.5,29.98,ESE,104,3.0,0.0,61,0.00,,OVC029,0.00,VWS V14.01,2013-06-10 18:20:00,
2013-06-10 11:25:00,62.6,49.8,29.97,ESE,107,4.0,0.0,63,0.00,,BKN029,0.00,VWS V14.01,2013-06-10 18:25:00,
2013-06-10 11:30:00,62.0,49.7,29.97,East,82,1.0,0.0,64,0.00,,BKN029,0.00,VWS V14.01,2013-06-10 18:30:00,
2013-06-10 11:35:00,61.8,49.5,29.97,ENE,78,2.0,0.0,64,0.00,,BKN029,0.00,VWS V14.01,2013-06-10 18:35:00,
2013-06-10 11:40:00,62.5,50.2,29.97,East,101,3.0,0.0,64,0.00,,BKN029,0.00,VWS V14.01,2013-06-10 18:40:00,
2013-06-10 11:45:00,62.5,50.2,29.97,ESE,103,5.0,0.0,64,0.00,,BKN031,0.00,VWS V14.01,2013-06-10 18:45:00,
2013-06-10 11:50:00,61.9,50.4,29.97,SSW,205,0.0,0.0,66,0.00,,BKN031,0.00,VWS V14.01,2013-06-10 18:50:00,
2013-06-10 11:55:00,61.6,49.7,29.97,ESE,109,6.0,0.0,65,0.00,,BKN031,0.00,VWS V14.01,2013-06-10 18:55:00,
2013-06-10 12:00:00,61.5,49.6,29.97,SE,128,4.0,0.0,65,0.00,,BKN031,0.00,VWS V14.01,2013-06-10 19:00:00,
2013-06-10 12:05:00,61.6,49.7,29.97,ESE,107,1.0,0.0,65,0.00,,OVC041,0.00,VWS V14.01,2013-06-10 19:05:00,
2013-06-10 12:10:00,61.7,50.2,29.97,East,96,3.0,0.0,66,0.00,,OVC041,0.00,VWS V14.01,2013-06-10 19:10:00,
2013-06-10 12:15:00,61.1,49.3,29.97,SE,133,3.0,0.0,65,0.00,,OVC041,0.00,VWS V14.01,2013-06-10 19:15:00,
2013-06-10 12:20:00,60.7,49.7,29.97,ESE,110,1.0,0.0,67,0.00,,OVC041,0.00,VWS V14.01,2013-06-10 19:20:00,
2013-06-10 12:25:00,61.1,50.1,29.97,ESE,115,4.0,0.0,67,0.00,,OVC049,0.00,VWS V14.01,2013-06-10 19:25:00,
2013-06-10 12:30:00,61.4,51.2,29.97,ESE,121,0.0,0.0,69,0.00,,OVC049,0.00,VWS V14.01,2013-06-10 19:30:00,
2013-06-10 12:35:00,62.2,50.7,29.97,ESE,107,3.0,0.0,66,0.00,,OVC049,0.00,VWS V14.01,2013-06-10 19:35:00,
2013-06-10 12:40:00,61.8,49.9,29.97,NE,53,2.0,0.0,65,0.00,,OVC049,0.00,VWS V14.01,2013-06-10 19:40:00,
2013-06-10 12:45:00,62.1,50.2,29.96,ESE,109,0.0,0.0,65,0.00,,BKN047,0.00,VWS V14.01,2013-06-10 19:45:00,
2013-06-10 12:50:00,63.1,52.0,29.97,East,101,4.0,0.0,67,0.00,,BKN047,0.00,VWS V14.01,2013-06-10 19:50:00,
2013-06-10 12:55:00,64.0,51.6,29.96,ESE,123,4.0,0.0,64,0.00,,BKN047,0.00,VWS V14.01,2013-06-10 19:55:00,
2013-06-10 13:00:00,64.1,50.4,29.96,East,95,4.0,0.0,61,0.00,,BKN047,0.00,VWS V14.01,2013-06-10 20:00:00,
2013-06-10 13:05:00,64.2,50.9,29.96,ESE,102,6.0,0.0,62,0.00,,BKN047,0.00,VWS V14.01,2013-06-10 20:05:00,
2013-06-10 13:10:00,63.6,50.4,29.96,ESE,111,1.0,0.0,62,0.00,,BKN047,0.00,VWS V14.01,2013-06-10 20:10:00,
2013-06-10 13:15:00,63.2,51.7,29.96,SE,137,1.0,0.0,66,0.00,,BKN047,0.00,VWS V14.01,2013-06-10 20:15:00,
2013-06-10 13:20:00,63.2,51.2,29.96,SE,131,1.0,0.0,65,0.00,,BKN047,0.00,VWS V14.01,2013-06-10 20:20:00,
2013-06-10 13:25:00,63.4,51.4,29.96,SE,129,1.0,0.0,65,0.00,,BKN049,0.00,VWS V14.01,2013-06-10 20:25:00,
2013-06-10 13:30:00,63.0,50.7,29.95,East,99,3.0,0.0,64,0.00,,BKN049,0.00,VWS V14.01,2013-06-10 20:30:00,
2013-06-10 13:35:00,63.0,51.1,29.95,East,98,3.0,0.0,65,0.00,,BKN049,0.00,VWS V14.01,2013-06-10 20:35:00,
2013-06-10 13:40:00,62.5,50.6,29.95,ESE,123,3.0,0.0,65,0.00,,BKN049,0.00,VWS V14.01,2013-06-10 20:40:00,
2013-06-10 13:45:00,62.0,50.1,29.95,East,99,4.0,0.0,65,0.00,,BKN049,0.00,VWS V14.01,2013-06-10 20:45:00,
2013-06-10 13:50:00,62.0,50.5,29.95,East,95,3.0,0.0,66,0.00,,BKN049,0.00,VWS V14.01,2013-06-10 20:50:00,
2013-06-10 13:55:00,62.0,50.5,29.95,ESE,117,2.0,0.0,66,0.00,,BKN049,0.00,VWS V14.01,2013-06-10 20:55:00,
2013-06-10 13:59:00,62.2,50.7,29.95,East,91,6.0,0.0,66,0.00,,BKN049,0.00,VWS V14.01,2013-06-10 20:59:00,
2013-06-10 14:04:00,62.2,50.7,29.95,East,84,2.0,0.0,66,0.00,,OVC049,0.00,VWS V14.01,2013-06-10 21:04:00,
2013-06-10 14:09:00,62.7,50.8,29.95,ENE,69,0.0,0.0,65,0.00,,OVC049,0.00,VWS V14.01,2013-06-10 21:09:00,
2013-06-10 14:14:00,63.7,51.7,29.95,East,84,4.0,0.0,65,0.00,,OVC049,0.00,VWS V14.01,2013-06-10 21:14:00,
2013-06-10 14:19:00,64.0,51.2,29.95,ENE,73,2.0,0.0,63,0.00,,OVC049,0.00,VWS V14.01,2013-06-10 21:19:00,
2013-06-10 14:24:00,64.6,51.7,29.95,ESE,119,2.0,0.0,63,0.00,,OVC049,0.00,VWS V14.01,2013-06-10 21:24:00,
2013-06-10 14:29:00,64.4,51.1,29.95,ESE,105,1.0,0.0,62,0.00,,OVC049,0.00,VWS V14.01,2013-06-10 21:29:00,
2013-06-10 14:34:00,64.3,50.1,29.95,ESE,107,2.0,0.0,60,0.00,,OVC049,0.00,VWS V14.01,2013-06-10 21:34:00,
2013-06-10 14:39:00,64.4,50.7,29.95,ENE,67,2.0,0.0,61,0.00,,OVC049,0.00,VWS V14.01,2013-06-10 21:39:00,
2013-06-10 14:44:00,65.0,51.2,29.94,ESE,115,2.0,0.0,61,0.00,,BKN049,0.00,VWS V14.01,2013-06-10 21:44:00,
2013-06-10 14:49:00,66.4,51.7,29.94,ENE,73,1.0,0.0,59,0.00,,BKN049,0.00,VWS V14.01,2013-06-10 21:49:00,
2013-06-10 14:54:00,67.1,51.8,29.94,East,98,7.0,0.0,58,0.00,,BKN049,0.00,VWS V14.01,2013-06-10 21:54:00,
2013-06-10 14:59:00,66.8,52.0,29.94,East,90,2.0,0.0,59,0.00,,BKN049,0.00,VWS V14.01,2013-06-10 21:59:00,
2013-06-10 15:04:00,67.0,51.8,29.94,ESE,114,10.0,0.0,58,0.00,,BKN055,0.00,VWS V14.01,2013-06-10 22:04:00,
2013-06-10 15:09:00,66.6,51.4,29.94,NNE,26,5.0,0.0,58,0.00,,BKN055,0.00,VWS V14.01,2013-06-10 22:09:00,
2013-06-10 15:14:00,67.0,52.2,29.94,ESE,113,3.0,0.0,59,0.00,,BKN055,0.00,VWS V14.01,2013-06-10 22:14:00,
2013-06-10 15:19:00,66.1,50.0,29.94,ENE,73,2.0,0.0,56,0.00,,BKN055,0.00,VWS V14.01,2013-06-10 22:19:00,
2013-06-10 15:24:00,65.5,49.9,29.94,SE,126,3.0,0.0,57,0.00,,OVC050,0.00,VWS V14.01,2013-06-10 22:24:00,
2013-06-10 15:29:00,65.2,50.1,29.94,ESE,111,5.0,0.0,58,0.00,,OVC050,0.00,VWS V14.01,2013-06-10 22:29:00,
2013-06-10 15:34:00,65.2,51.4,29.94,ESE,102,0.0,0.0,61,0.00,,OVC050,0.00,VWS V14.01,2013-06-10 22:34:00,
2013-06-10 15:39:00,65.7,50.1,29.94,East,88,3.0,0.0,57,0.00,,OVC050,0.00,VWS V14.01,2013-06-10 22:39:00,
2013-06-10 15:44:00,65.8,49.7,29.93,ESE,102,0.0,0.0,56,0.00,,OVC050,0.00,VWS V14.01,2013-06-10 22:44:00,
2013-06-10 15:49:00,67.5,52.2,29.93,East,82,4.0,0.0,58,0.00,,OVC050,0.00,VWS V14.01,2013-06-10 22:49:00,
2013-06-10 15:54:00,68.2,50.4,29.93,ESE,116,5.0,0.0,53,0.00,,OVC050,0.00,VWS V14.01,2013-06-10 22:54:00,
2013-06-10 15:59:00,67.2,49.0,29.93,ESE,115,3.0,0.0,52,0.00,,OVC050,0.00,VWS V14.01,2013-06-10 22:59:00,
2013-06-10 16:04:00,67.0,50.3,29.93,NW,310,2.0,0.0,55,0.00,,OVC050,0.00,VWS V14.01,2013-06-10 23:04:00,
2013-06-10 16:09:00,66.6,49.5,29.93,East,100,10.0,0.0,54,0.00,,OVC050,0.00,VWS V14.01,2013-06-10 23:09:00,
2013-06-10 16:14:00,66.6,49.5,29.93,ESE,109,6.0,0.0,54,0.00,,OVC050,0.00,VWS V14.01,2013-06-10 23:14:00,
2013-06-10 16:19:00,65.8,49.2,29.93,ESE,104,3.0,0.0,55,0.00,,OVC050,0.00,VWS V14.01,2013-06-10 23:19:00,
2013-06-10 16:24:00,65.8,50.2,29.93,SE,141,4.0,0.0,57,0.00,,OVC050,0.00,VWS V14.01,2013-06-10 23:24:00,
2013-06-10 16:29:00,65.2,49.1,29.93,East,86,3.0,0.0,56,0.00,,OVC050,0.00,VWS V14.01,2013-06-10 23:29:00,
2013-06-10 16:34:00,65.2,50.1,29.93,ESE,116,0.0,0.0,58,0.00,,OVC050,0.00,VWS V14.01,2013-06-10 23:34:00,
2013-06-10 16:39:00,65.7,50.5,29.93,ESE,119,1.0,0.0,58,0.00,,OVC050,0.00,VWS V14.01,2013-06-10 23:39:00,
2013-06-10 16:44:00,65.9,49.8,29.93,ESE,121,7.0,0.0,56,0.00,,BKN060,0.00,VWS V14.01,2013-06-10 23:44:00,
2013-06-10 16:49:00,65.9,49.8,29.93,East,90,9.0,0.0,56,0.00,,BKN060,0.00,VWS V14.01,2013-06-10 23:49:00,
2013-06-10 16:54:00,65.9,50.2,29.92,NNE,23,3.0,0.0,57,0.00,,BKN060,0.00,VWS V14.01,2013-06-10 23:54:00,
2013-06-10 16:59:00,65.9,50.2,29.92,ESE,122,6.0,0.0,57,0.00,,BKN060,0.00,VWS V14.01,2013-06-10 23:59:00,
2013-06-10 17:04:00,65.6,50.4,29.92,ESE,113,8.0,0.0,58,0.00,,BKN060,0.00,VWS V14.01,2013-06-11 00:04:00,
2013-06-10 17:09:00,66.0,51.3,29.92,ESE,113,5.0,0.0,59,0.00,,BKN060,0.00,VWS V14.01,2013-06-11 00:09:00,
2013-06-10 17:14:00,65.9,50.7,29.93,ESE,116,3.0,0.0,58,0.00,,BKN060,0.00,VWS V14.01,2013-06-11 00:14:00,
2013-06-10 17:19:00,65.7,50.1,29.92,SE,125,9.0,0.0,57,0.00,,BKN060,0.00,VWS V14.01,2013-06-11 00:19:00,
2013-06-10 17:24:00,65.5,50.3,29.92,East,84,3.0,0.0,58,0.00,,OVC060,0.00,VWS V14.01,2013-06-11 00:24:00,
2013-06-10 17:29:00,65.7,50.5,29.92,ESE,103,3.0,0.0,58,0.00,,OVC060,0.00,VWS V14.01,2013-06-11 00:29:00,
2013-06-10 17:34:00,65.5,49.4,29.92,SE,130,3.0,0.0,56,0.00,,OVC060,0.00,VWS V14.01,2013-06-11 00:34:00,
2013-06-10 17:39:00,65.3,50.2,29.92,East,96,4.0,0.0,58,0.00,,OVC060,0.00,VWS V14.01,2013-06-11 00:39:00,
2013-06-10 17:44:00,65.4,50.2,29.92,East,83,5.0,0.0,58,0.00,,BKN060,0.00,VWS V14.01,2013-06-11 00:44:00,
2013-06-10 17:49:00,65.3,50.6,29.92,East,98,4.0,0.0,59,0.00,,BKN060,0.00,VWS V14.01,2013-06-11 00:49:00,
2013-06-10 17:54:00,65.0,49.9,29.93,East,99,3.0,0.0,58,0.00,,BKN060,0.00,VWS V14.01,2013-06-11 00:54:00,
2013-06-10 17:59:00,65.3,51.1,29.92,ESE,113,7.0,0.0,60,0.00,,BKN060,0.00,VWS V14.01,2013-06-11 00:59:00,
2013-06-10 18:04:00,65.1,50.4,29.92,East,99,5.0,0.0,59,0.00,,SCT050,0.00,VWS V14.01,2013-06-11 01:04:00,
2013-06-10 18:09:00,65.0,49.9,29.92,SE,138,7.0,0.0,58,0.00,,SCT050,0.00,VWS V14.01,2013-06-11 01:09:00,
2013-06-10 18:14:00,64.9,49.8,29.92,ESE,113,5.0,0.0,58,0.00,,SCT050,0.00,VWS V14.01,2013-06-11 01:14:00,
2013-06-10 18:19:00,64.8,49.7,29.92,ESE,113,7.0,0.0,58,0.00,,SCT050,0.00,VWS V14.01,2013-06-11 01:19:00,
2013-06-10 18:24:00,64.1,49.5,29.92,East,95,5.0,0.0,59,0.00,,OVC050,0.00,VWS V14.01,2013-06-11 01:24:00,
2013-06-10 18:29:00,63.7,49.6,29.93,ESE,106,3.0,0.0,60,0.00,,OVC050,0.00,VWS V14.01,2013-06-11 01:29:00,
2013-06-10 18:34:00,63.7,49.6,29.92,East,88,2.0,0.0,60,0.00,,OVC050,0.00,VWS V14.01,2013-06-11 01:34:00,
2013-06-10 18:39:00,63.4,48.8,29.93,East,96,3.0,0.0,59,0.00,,OVC050,0.00,VWS V14.01,2013-06-11 01:39:00,
2013-06-10 18:44:00,63.1,49.0,29.93,ESE,123,5.0,0.0,60,0.00,,BKN050,0.00,VWS V14.01,2013-06-11 01:44:00,
2013-06-10 18:49:00,62.8,48.7,29.93,ESE,108,11.0,0.0,60,0.00,,BKN050,0.00,VWS V14.01,2013-06-11 01:49:00,
2013-06-10 18:54:00,62.7,48.6,29.93,East,100,11.0,0.0,60,0.00,,BKN050,0.00,VWS V14.01,2013-06-11 01:54:00,
2013-06-10 18:59:00,62.6,49.0,29.93,ENE,69,2.0,0.0,61,0.00,,BKN050,0.00,VWS V14.01,2013-06-11 01:59:00,
2013-06-10 19:04:00,62.6,49.0,29.93,East,86,7.0,0.0,61,0.00,,FEW050,0.00,VWS V14.01,2013-06-11 02:04:00,
2013-06-10 19:09:00,62.5,48.9,29.93,East,83,12.0,0.0,61,0.00,,FEW050,0.00,VWS V14.01,2013-06-11 02:09:00,
2013-06-10 19:14:00,62.2,48.6,29.93,ENE,74,2.0,0.0,61,0.00,,FEW050,0.00,VWS V14.01,2013-06-11 02:14:00,
2013-06-10 19:19:00,62.2,49.0,29.93,SE,133,2.0,0.0,62,0.00,,FEW050,0.00,VWS V14.01,2013-06-11 02:19:00,
2013-06-10 19:24:00,62.5,48.9,29.93,ESE,111,6.0,0.0,61,0.00,,CLR,0.00,VWS V14.01,2013-06-11 02:24:00,
2013-06-10 19:29:00,61.9,48.3,29.93,East,94,4.0,0.0,61,0.00,,CLR,0.00,VWS V14.01,2013-06-11 02:29:00,
2013-06-10 19:34:00,61.7,48.1,29.93,ESE,102,7.0,0.0,61,0.00,,CLR,0.00,VWS V14.01,2013-06-11 02:34:00,
2013-06-10 19:39:00,61.5,47.9,29.93,SSE,168,4.0,0.0,61,0.00,,CLR,0.00,VWS V14.01,2013-06-11 02:39:00,
2013-06-10 19:44:00,61.7,48.1,29.93,East,85,3.0,0.0,61,0.00,,CLR,0.00,VWS V14.01,2013-06-11 02:44:00,
2013-06-10 19:49:00,61.6,47.6,29.93,ESE,115,3.0,0.0,60,0.00,,CLR,0.00,VWS V14.01,2013-06-11 02:49:00,
2013-06-10 19:54:00,61.4,47.4,29.93,ESE,105,3.0,0.0,60,0.00,,CLR,0.00,VWS V14.01,2013-06-11 02:54:00,
2013-06-10 19:59:00,61.0,47.0,29.93,ESE,102,10.0,0.0,60,0.00,,CLR,0.00,VWS V14.01,2013-06-11 02:59:00,
2013-06-10 20:04:00,60.5,47.0,29.93,East,91,5.0,0.0,61,0.00,,CLR,0.00,VWS V14.01,2013-06-11 03:04:00,
2013-06-10 20:09:00,60.2,46.7,29.93,East,99,3.0,0.0,61,0.00,,CLR,0.00,VWS V14.01,2013-06-11 03:09:00,
2013-06-10 20:14:00,60.0,47.0,29.94,ESE,123,4.0,0.0,62,0.00,,CLR,0.00,VWS V14.01,2013-06-11 03:14:00,
2013-06-10 20:19:00,59.4,46.4,29.94,East,97,10.0,0.0,62,0.00,,CLR,0.00,VWS V14.01,2013-06-11 03:19:00,
2013-06-10 20:24:00,58.9,46.3,29.94,East,95,5.0,0.0,63,0.00,,CLR,0.00,VWS V14.01,2013-06-11 03:24:00,
2013-06-10 20:29:00,58.5,46.4,29.94,ESE,113,4.0,0.0,64,0.00,,CLR,0.00,VWS V14.01,2013-06-11 03:29:00,
2013-06-10 20:34:00,58.2,46.1,29.94,ENE,63,6.0,0.0,64,0.00,,CLR,0.00,VWS V14.01,2013-06-11 03:34:00,
2013-06-10 20:39:00,58.0,46.3,29.94,East,82,2.0,0.0,65,0.00,,CLR,0.00,VWS V14.01,2013-06-11 03:39:00,
2013-06-10 20:44:00,57.8,46.1,29.95,ESE,118,4.0,0.0,65,0.00,,CLR,0.00,VWS V14.01,2013-06-11 03:44:00,
2013-06-10 20:49:00,57.7,46.0,29.95,SE,139,5.0,0.0,65,0.00,,CLR,0.00,VWS V14.01,2013-06-11 03:49:00,
2013-06-10 20:54:00,57.5,46.2,29.95,ESE,119,3.0,0.0,66,0.00,,CLR,0.00,VWS V14.01,2013-06-11 03:54:00,
2013-06-10 20:59:00,57.3,46.0,29.95,East,95,1.0,0.0,66,0.00,,CLR,0.00,VWS V14.01,2013-06-11 03:59:00,
2013-06-10 21:01:00,57.3,46.5,29.95,ESE,105,1.0,0.0,67,0.00,,CLR,0.00,VWS V14.01,2013-06-11 04:01:00,
2013-06-10 21:06:00,57.1,46.3,29.96,East,98,1.0,0.0,67,0.00,,BKN050,0.00,VWS V14.01,2013-06-11 04:06:00,
2013-06-10 21:11:00,57.0,46.2,29.96,ESE,111,3.0,0.0,67,0.00,,BKN050,0.00,VWS V14.01,2013-06-11 04:11:00,
2013-06-10 21:17:00,56.9,46.5,29.96,ESE,102,0.0,0.0,68,0.00,,BKN050,0.00,VWS V14.01,2013-06-11 04:17:00,
2013-06-10 21:22:00,56.7,46.7,29.96,ESE,111,0.0,0.0,69,0.00,,BKN050,0.00,VWS V14.01,2013-06-11 04:22:00,
2013-06-10 21:27:00,56.5,46.1,29.97,East,98,2.0,0.0,68,0.00,,BKN050,0.00,VWS V14.01,2013-06-11 04:27:00,
2013-06-10 21:32:00,56.3,45.9,29.97,ESE,119,2.0,0.0,68,0.00,,BKN050,0.00,VWS V14.01,2013-06-11 04:32:00,
2013-06-10 21:37:00,56.2,45.8,29.97,East,91,0.0,0.0,68,0.00,,BKN050,0.00,VWS V14.01,2013-06-11 04:37:00,
2013-06-10 21:42:00,56.1,45.7,29.97,East,98,4.0,0.0,68,0.00,,SCT050,0.00,VWS V14.01,2013-06-11 04:42:00,
2013-06-10 21:47:00,55.8,45.8,29.97,ESE,111,4.0,0.0,69,0.00,,SCT050,0.00,VWS V14.01,2013-06-11 04:47:00,
2013-06-10 21:52:00,55.5,45.5,29.97,SE,130,6.0,0.0,69,0.00,,SCT050,0.00,VWS V14.01,2013-06-11 04:52:00,
2013-06-10 21:57:00,55.3,45.7,29.97,ESE,113,3.0,0.0,70,0.00,,SCT050,0.00,VWS V14.01,2013-06-11 04:57:00,
2013-06-10 22:02:00,54.9,45.3,29.97,ESE,113,1.0,0.0,70,0.00,,SCT050,0.00,VWS V14.01,2013-06-11 05:02:00,
2013-06-10 22:07:00,54.6,45.4,29.98,ESE,106,0.0,0.0,71,0.00,,FEW048,0.00,VWS V14.01,2013-06-11 05:07:00,
2013-06-10 22:12:00,54.1,45.3,29.98,ESE,107,0.0,0.0,72,0.00,,FEW048,0.00,VWS V14.01,2013-06-11 05:12:00,
2013-06-10 22:17:00,53.5,45.4,29.98,ESE,107,0.0,0.0,74,0.00,,FEW048,0.00,VWS V14.01,2013-06-11 05:17:00,
2013-06-10 22:22:00,53.0,45.3,29.98,SSW,198,0.0,0.0,75,0.00,,FEW048,0.00,VWS V14.01,2013-06-11 05:22:00,
2013-06-10 22:27:00,52.6,45.3,29.98,SE,141,0.0,0.0,76,0.00,,SCT048,0.00,VWS V14.01,2013-06-11 05:27:00,
2013-06-10 22:32:00,52.4,45.4,29.98,SE,141,0.0,0.0,77,0.00,,SCT048,0.00,VWS V14.01,2013-06-11 05:32:00,
2013-06-10 22:37:00,52.2,45.2,29.98,SE,142,0.0,0.0,77,0.00,,SCT048,0.00,VWS V14.01,2013-06-11 05:37:00,
2013-06-10 22:42:00,51.8,44.8,29.98,SE,141,0.0,0.0,77,0.00,,SCT048,0.00,VWS V14.01,2013-06-11 05:42:00,
2013-06-10 22:47:00,51.5,44.9,29.98,SE,141,0.0,0.0,78,0.00,,FEW046,0.00,VWS V14.01,2013-06-11 05:47:00,
2013-06-10 22:52:00,51.3,44.7,29.99,WSW,253,0.0,0.0,78,0.00,,FEW046,0.00,VWS V14.01,2013-06-11 05:52:00,
2013-06-10 22:57:00,51.2,44.9,29.99,WSW,253,0.0,0.0,79,0.00,,FEW046,0.00,VWS V14.01,2013-06-11 05:57:00,
2013-06-10 23:02:00,51.1,44.8,29.99,WSW,253,0.0,0.0,79,0.00,,FEW046,0.00,VWS V14.01,2013-06-11 06:02:00,
2013-06-10 23:07:00,51.0,44.7,29.99,East,100,0.0,0.0,79,0.00,,FEW046,0.00,VWS V14.01,2013-06-11 06:07:00,
2013-06-10 23:12:00,51.0,45.1,29.99,East,99,0.0,0.0,80,0.00,,FEW046,0.00,VWS V14.01,2013-06-11 06:12:00,
2013-06-10 23:17:00,51.1,45.2,29.98,ESE,118,0.0,0.0,80,0.00,,FEW046,0.00,VWS V14.01,2013-06-11 06:17:00,
2013-06-10 23:22:00,51.5,45.2,29.99,ESE,109,0.0,0.0,79,0.00,,BKN046,0.00,VWS V14.01,2013-06-11 06:22:00,
2013-06-10 23:27:00,51.8,45.5,29.99,East,84,0.0,0.0,79,0.00,,BKN046,0.00,VWS V14.01,2013-06-11 06:27:00,
2013-06-10 23:32:00,51.9,45.6,29.99,East,87,1.0,0.0,79,0.00,,BKN046,0.00,VWS V14.01,2013-06-11 06:32:00,
2013-06-10 23:37:00,52.0,45.4,29.99,ESE,105,0.0,0.0,78,0.00,,BKN046,0.00,VWS V14.01,2013-06-11 06:37:00,
2013-06-10 23:42:00,52.1,45.5,29.99,East,92,0.0,0.0,78,0.00,,BKN046,0.00,VWS V14.01,2013-06-11 06:42:00,
2013-06-10 23:47:00,52.1,45.8,29.99,ESE,117,0.0,0.0,79,0.00,,BKN048,0.00,VWS V14.01,2013-06-11 06:47:00,
2013-06-10 23:52:00,52.0,45.7,29.99,ESE,117,0.0,0.0,79,0.00,,BKN048,0.00,VWS V14.01,2013-06-11 06:52:00,
2013-06-10 23:57:00,52.0,45.7,29.99,SE,141,1.0,0.0,79,0.00,,BKN048,0.00,VWS V14.01,2013-06-11 06:57:00,